Flag for Antigua and Barbuda Weather past 2 weeks in Saint John's, Antigua and Barbuda

Now
77 °F

Passing clouds.


Feels Like: 79 °F
Forecast: 77 / 82 °F
Wind: 13 mph from East

Location: Vc Bird International Antigua Airport

Current Time: Dec 18, 2014 at 9:45:12 PM

Latest Report: Dec 18, 2014 at 9:00 PM


Visibility: N/A

Pressure: 29.98 "Hg

Humidity: 79%

Dew point: 70 °F

Location of Saint John'sLocation

Historic Weather in Saint John's — Graph

°F

Saint John's temperature yesterday

Maximum temperature yesterday: 82 °F (at 11:00 AM)
Minimum temperature yesterday: 73 °F (at 12:00 AM)
Average temperature yesterday: 78 °F

Past Weeks' High & Low Weather Summary

 TemperatureHumidityPressure
High84 °F (Dec 7, 1:00 PM)100% (Dec 4, 1:00 PM)30.04 "Hg (Dec 4, 1:00 PM)
Low70 °F (Dec 8, 1:00 AM)58% (Dec 7, 3:00 PM)29.80 "Hg (Dec 6, 2:00 PM)
Average77 °F81%29.93 "Hg
* Reported Dec 3 8:00 PM — Dec 18 8:00 PM, Saint John's, Weather by CustomWeather, © 2014

Note: Actual official high and low records may vary slightly from our data, if they occured in-between our weather recording intervals... More about our weather records

Advertising

Saint John's weather history for previous 24 hours

 ConditionsComfort  
Time TempWeatherWind HumidityBarometerVisibility
8:00 PM
Dec 18
72 °FLight rain. Passing clouds.13 mph94%29.98 "HgN/A
7:00 PM73 °FSprinkles. Passing clouds.1 mph89%29.95 "HgN/A
6:00 PM75 °FPartly cloudy.12 mph89%29.95 "HgN/A
5:00 PM73 °FSprinkles. Partly sunny.10 mph89%29.95 "HgN/A
4:00 PM75 °FScattered clouds.12 mph83%29.95 "HgN/A
3:00 PM73 °FLight rain. Passing clouds.5 mph94%29.95 "HgN/A
2:00 PM75 °FSprinkles. Broken clouds.10 mph83%29.95 "HgN/A
1:00 PM77 °FPartly sunny.13 mph83%29.98 "HgN/A
12:00 PM75 °FRain showers. Broken clouds.12 mph89%30.01 "HgN/A
11:00 AM79 °FPartly sunny.3 mph70%30.01 "HgN/A
10:00 AM77 °FBroken clouds.6 mph79%30.04 "HgN/A
9:00 AM73 °FBroken clouds.13 mph89%30.01 "HgN/A
8:00 AM73 °FBroken clouds.13 mph89%30.01 "HgN/A
7:00 AM73 °FBroken clouds.15 mph89%29.98 "HgN/A
6:00 AM73 °FPassing clouds.7 mph89%29.95 "HgN/A
5:00 AM73 °FPassing clouds.10 mph89%29.95 "HgN/A
4:00 AM75 °FPassing clouds.9 mph83%29.95 "HgN/A
3:00 AM73 °FPassing clouds.12 mph83%29.95 "HgN/A
2:00 AM73 °FPassing clouds.12 mph89%29.98 "HgN/A
1:00 AM73 °FPassing clouds.12 mph89%29.98 "HgN/A
12:00 AM73 °FPassing clouds.2 mph89%29.98 "HgN/A
11:00 PM
Dec 17
73 °FPassing clouds.2 mph89%29.98 "HgN/A
10:00 PM75 °FPassing clouds.2 mph83%29.98 "HgN/A
9:00 PM77 °FPassing clouds.2 mph79%29.98 "HgN/A
Weather by CustomWeather, © 2014

See weather overviewHow to use our weather pages